Location: Les Martinières
(47.2667°N, 1.4410°E)
Time: 00:08:51
(UTC+00:00)

Cosmos 1606 Rocket - Pass Details

Date: 15 May 2026
Orbit: 595 x 625 km, 82.5° (Epoch: 9 June)

Event Time Altitude Azimuth Distance (km) Brightness Sun altitude
Exits shadow 21:17:15 27° 154° (SSE) 1,186 4.4 -15.3°
Maximum altitude 21:19:18 48° 94° (E) 795 3.8 -15.5°
Drops below altitude 10° 21:23:27 10° 20° (NNE) 1,955 6.6 -15.9°
Sets 21:25:43 0° 15° (NNE) 2,859 7.6 -16.1°
